DW8356 Weather Reports


Display with metric or nautical units.
time (UTC)temp
F
wind
direction
speed
MPH
gust
MPH
rain 1hr
in
rain 24hr
in
rain mn
in
humidity
%
barometer
mb
20260903053103 81 116 5.0 12.0 0.00 0.00 0.00 72 1013.8
20260903052525 81 119 5.0 14.0 0.00 0.00 0.00 72 1013.8
20260903052025 81 144 5.0 14.0 0.00 0.00 0.00 71 1013.8
20260903051548 81 132 4.0 13.0 0.00 0.00 0.00 71 1014.0
20260903051021 81 98 5.0 13.0 0.00 0.00 0.00 70 1014.0
20260903050525 81 165 5.0 13.0 0.00 0.00 0.00 70 1013.9
20260903050058 82 138 4.0 18.0 0.00 0.00 0.00 69 1013.9
20260903045526 82 166 6.0 18.0 0.00 0.00 0.00 69 1013.9
20260903045023 82 89 7.0 16.0 0.00 0.00 0.00 68 1013.9
20260903044555 82 175 4.0 15.0 0.00 0.00 0.00 68 1013.8
20260903044024 83 187 4.0 14.0 0.00 0.00 0.00 67 1013.7
20260903043527 83 128 5.0 13.0 0.00 0.00 0.00 67 1013.7
20260903043039 83 151 4.0 11.0 0.00 0.00 0.00 66 1013.7
20260903042525 83 114 5.0 11.0 0.00 0.00 0.00 66 1013.8
20260903042027 83 167 5.0 11.0 0.00 0.00 0.00 66 1013.9
20260903041552 83 52 3.0 9.0 0.00 0.00 0.00 65 1013.9
20260903041023 84 90 3.0 9.0 0.00 0.00 0.00 65 1013.7
20260903040521 84 129 3.0 9.0 0.00 0.00 0.00 64 1013.8
20260903040046 84 191 2.0 10.0 0.00 0.00 0.00 64 1014.0
20260903035526 84 169 2.0 10.0 0.00 0.00 0.00 64 1014.0
20260903035024 84 163 3.0 11.0 0.00 0.00 0.00 63 1013.9
20260903034542 84 130 2.0 11.0 0.00 0.00 0.00 63 1013.9
20260903034022 85 102 5.0 11.0 0.00 0.00 0.00 62 1013.9
20260903033522 85 152 4.0 12.0 0.00 0.00 0.00 62 1013.9
20260903033046 85 144 3.0 12.0 0.00 0.00 0.00 61 1013.8
20260903032525 85 169 4.0 12.0 0.00 0.00 0.00 61 1013.9
20260903032026 85 149 4.0 11.0 0.00 0.00 0.00 60 1013.8
20260903031544 85 138 4.0 10.0 0.00 0.00 0.00 60 1013.9
20260903031025 86 163 3.0 12.0 0.00 0.00 0.00 59 1013.8
20260903030525 86 140 4.0 12.0 0.00 0.00 0.00 59 1013.8
20260903030042 86 159 4.0 11.0 0.00 0.00 0.00 58 1013.7
20260903025524 87 137 3.0 10.0 0.00 0.00 0.00 58 1013.8
20260903025024 87 146 3.0 11.0 0.00 0.00 0.00 58 1013.6
20260903024545 87 202 5.0 14.0 0.00 0.00 0.00 57 1013.7
20260903024024 88 126 5.0 14.0 0.00 0.00 0.00 57 1013.7
20260903023523 88 139 2.0 13.0 0.00 0.00 0.00 56 1013.7
20260903023043 88 188 4.0 13.0 0.00 0.00 0.00 55 1013.6
20260903022525 89 170 2.0 9.0 0.00 0.00 0.00 55 1013.4
20260903022022 89 190 3.0 12.0 0.00 0.00 0.00 54 1013.2
20260903021550 89 168 3.0 12.0 0.00 0.00 0.00 53 1013.2
20260903021024 90 189 2.0 11.0 0.00 0.00 0.00 52 1013.2
20260903020524 90 190 4.0 11.0 0.00 0.00 0.00 51 1013.0
20260903020043 90 150 5.0 11.0 0.00 0.00 0.00 50 1012.9
20260903015524 90 112 4.0 10.0 0.00 0.00 0.00 50 1012.9
20260903015023 90 123 3.0 11.0 0.00 0.00 0.00 49 1012.9
20260903014547 91 162 3.0 11.0 0.00 0.00 0.00 49 1012.7
20260903014023 91 169 4.0 11.0 0.00 0.00 0.00 49 1012.6
20260903013522 91 151 2.0 9.0 0.00 0.00 0.00 49 1012.5
20260903013040 91 180 3.0 10.0 0.00 0.00 0.00 48 1012.5
20260903012528 91 134 4.0 10.0 0.00 0.00 0.00 48 1012.4
20260903012028 91 161 2.0 12.0 0.00 0.00 0.00 48 1012.4
20260903011546 92 144 3.0 12.0 0.00 0.00 0.00 48 1012.3
20260903011023 92 193 2.0 9.0 0.00 0.00 0.00 48 1012.4
20260903010520 92 165 2.0 8.0 0.00 0.00 0.00 48 1012.3
20260903010044 92 128 4.0 11.0 0.00 0.00 0.00 48 1012.2
20260903005522 92 206 3.0 11.0 0.00 0.00 0.00 48 1012.2
20260903005022 92 123 4.0 11.0 0.00 0.00 0.00 47 1012.2
20260903004540 93 160 3.0 7.0 0.00 0.00 0.00 47 1012.2
20260903004024 93 106 2.0 11.0 0.00 0.00 0.00 47 1012.2
20260903003528 93 145 4.0 11.0 0.00 0.00 0.00 47 1012.2
20260903003047 93 84 3.0 12.0 0.00 0.00 0.00 47 1012.1
20260903002525 93 148 5.0 12.0 0.00 0.00 0.00 47 1012.1
20260903002024 94 124 4.0 10.0 0.00 0.00 0.00 47 1012.0
20260903001545 94 130 4.0 10.0 0.00 0.00 0.00 46 1012.0
20260903001023 94 152 2.0 11.0 0.00 0.00 0.00 46 1012.0
20260903000523 94 155 4.0 15.0 0.00 0.00 0.00 45 1012.0
20260903000048 95 148 3.0 15.0 0.00 0.00 0.00 45 1011.9
20260902235524 95 168 3.0 12.0 0.00 0.00 0.00 45 1012.0
20260902235023 95 188 5.0 15.0 0.00 0.00 0.00 45 1012.0
20260902234546 95 154 4.0 15.0 0.00 0.00 0.00 45 1011.9
20260902234024 95 186 3.0 13.0 0.00 0.00 0.00 45 1011.9
20260902233524 96 195 5.0 15.0 0.00 0.00 0.00 44 1011.9
20260902233045 97 169 5.0 15.0 0.00 0.00 0.00 43 1011.9
20260902232523 97 170 5.0 10.0 0.00 0.00 0.00 43 1011.8
20260902232024 97 135 3.0 12.0 0.00 0.00 0.00 43 1011.8
20260902231543 97 104 4.0 12.0 0.00 0.00 0.00 43 1011.7
20260902231024 98 103 5.0 12.0 0.00 0.00 0.00 42 1011.7
20260902230525 98 123 4.0 12.0 0.00 0.00 0.00 40 1011.8
20260902230047 99 93 5.0 11.0 0.00 0.00 0.00 39 1011.8
20260902225524 98 123 5.0 11.0 0.00 0.00 0.00 39 1011.8
20260902225028 98 105 2.0 10.0 0.00 0.00 0.00 39 1011.7
20260902224545 98 139 4.0 10.0 0.00 0.00 0.00 39 1011.7
20260902224024 98 114 5.0 13.0 0.00 0.00 0.00 39 1011.7
20260902223524 98 88 4.0 13.0 0.00 0.00 0.00 38 1011.8
20260902223043 98 63 4.0 13.0 0.00 0.00 0.00 39 1011.7
20260902222526 99 107 3.0 10.0 0.00 0.00 0.00 39 1011.7
20260902222024 98 157 4.0 10.0 0.00 0.00 0.00 39 1011.9
20260902221547 98 188 3.0 9.0 0.00 0.00 0.00 39 1011.9
20260902221025 99 148 3.0 10.0 0.00 0.00 0.00 38 1011.9
20260902220525 99 109 4.0 10.0 0.00 0.00 0.00 37 1011.9
20260902220047 99 119 4.0 12.0 0.00 0.00 0.00 38 1011.9
20260902215524 100 74 3.0 12.0 0.00 0.00 0.00 36 1011.9
20260902215024 100 115 2.0 9.0 0.00 0.00 0.00 37 1011.9
20260902214542 100 140 1.0 9.0 0.00 0.00 0.00 37 1012.0
20260902214021 100 80 4.0 9.0 0.00 0.00 0.00 37 1012.1
20260902213525 99 46 2.0 12.0 0.00 0.00 0.00 38 1012.2
20260902213045 99 38 2.0 12.0 0.00 0.00 0.00 38 1012.2
20260902212523 99 133 6.0 14.0 0.00 0.00 0.00 38 1012.3
20260902212021 100 106 6.0 14.0 0.00 0.00 0.00 37 1012.3
20260902211556 100 86 3.0 13.0 0.00 0.00 0.00 37 1012.4
20260902211024 100 101 5.0 13.0 0.00 0.00 0.00 37 1012.5
20260902210523 100 99 3.0 13.0 0.00 0.00 0.00 38 1012.6
20260902210112 100 67 3.0 12.0 0.00 0.00 0.00 37 1012.7
20260902205522 100 85 4.0 14.0 0.00 0.00 0.00 37 1012.8
20260902205025 100 90 5.0 14.0 0.00 0.00 0.00 37 1012.8
20260902204549 100 71 7.0 14.0 0.00 0.00 0.00 36 1012.8
20260902204024 100 132 3.0 12.0 0.00 0.00 0.00 38 1012.8
20260902203524 100 132 3.0 12.0 0.00 0.00 0.00 38 1012.9
20260902203046 100 116 1.0 14.0 0.00 0.00 0.00 38 1013.0
20260902202521 100 89 5.0 14.0 0.00 0.00 0.00 38 1013.1
20260902202024 99 107 5.0 11.0 0.00 0.00 0.00 38 1013.1
20260902201546 99 176 3.0 10.0 0.00 0.00 0.00 39 1013.2
20260902201024 100 80 4.0 10.0 0.00 0.00 0.00 38 1013.3
20260902200523 99 186 3.0 8.0 0.00 0.00 0.00 39 1013.4
20260902200047 99 11 3.0 9.0 0.00 0.00 0.00 39 1013.5
20260902195524 99 98 4.0 10.0 0.00 0.00 0.00 39 1013.6
20260902195024 99 50 3.0 10.0 0.00 0.00 0.00 40 1013.7
20260902194545 98 69 3.0 8.0 0.00 0.00 0.00 40 1013.8
20260902194024 98 21 2.0 8.0 0.00 0.00 0.00 40 1013.8
20260902193523 97 81 3.0 9.0 0.00 0.00 0.00 40 1013.9
20260902193049 97 279 2.0 9.0 0.00 0.00 0.00 41 1013.9
20260902192524 97 119 3.0 8.0 0.00 0.00 0.00 40 1014.0
20260902192024 98 27 1.0 4.0 0.00 0.00 0.00 42 1014.1
20260902191551 97 164 1.0 11.0 0.00 0.00 0.00 43 1014.1
20260902191024 97 155 4.0 12.0 0.00 0.00 0.00 42 1014.2
20260902190524 97 169 5.0 12.0 0.00 0.00 0.00 42 1014.3
20260902190047 97 117 2.0 12.0 0.00 0.00 0.00 44 1014.4
20260902185524 95 179 5.0 12.0 0.00 0.00 0.00 45 1014.5
20260902185024 95 96 3.0 10.0 0.00 0.00 0.00 46 1014.5
20260902184542 95 34 4.0 11.0 0.00 0.00 0.00 45 1014.5
20260902184027 94 57 4.0 11.0 0.00 0.00 0.00 47 1014.7
20260902183525 95 34 4.0 11.0 0.00 0.00 0.00 46 1014.9
20260902183048 96 113 3.0 10.0 0.00 0.00 0.00 46 1015.0
20260902182527 97 79 3.0 10.0 0.00 0.00 0.00 44 1015.1
20260902182025 96 46 2.0 7.0 0.00 0.00 0.00 44 1015.3
20260902181554 96 108 1.0 9.0 0.00 0.00 0.00 46 1015.4
20260902181027 96 94 2.0 9.0 0.00 0.00 0.00 48 1015.4
20260902180524 96 113 4.0 10.0 0.00 0.00 0.00 46 1015.5
20260902180105 96 111 2.0 10.0 0.00 0.00 0.00 46 1015.6
20260902175525 95 95 1.0 10.0 0.00 0.00 0.00 48 1015.8
20260902175023 95 84 3.0 10.0 0.00 0.00 0.00 48 1015.7
20260902174544 95 360 3.0 9.0 0.00 0.00 0.00 47 1015.8
20260902174026 95 176 4.0 10.0 0.00 0.00 0.00 48 1015.9
20260902173525 95 155 3.0 10.0 0.00 0.00 0.00 49 1015.9
20260902173047 93 203 3.0 12.0 0.00 0.00 0.00 51 1015.9
20260902172524 92 97 6.0 13.0 0.00 0.00 0.00 51 1016.0
20260902172024 93 196 4.0 13.0 0.00 0.00 0.00 51 1016.0
20260902171549 95 85 5.0 13.0 0.00 0.00 0.00 48 1016.2
20260902171022 95 149 3.0 10.0 0.00 0.00 0.00 47 1016.3
20260902170522 95 352 1.0 8.0 0.00 0.00 0.00 49 1016.3
20260902170042 95 194 3.0 8.0 0.00 0.00 0.00 49 1016.3
20260902165525 94 195 2.0 7.0 0.00 0.00 0.00 50 1016.3
20260902165028 93 82 1.0 7.0 0.00 0.00 0.00 51 1016.5
20260902164547 93 0 1.0 7.0 0.00 0.00 0.00 53 1016.7
20260902164024 92 173 2.0 7.0 0.00 0.00 0.00 53 1016.7
20260902163521 91 171 2.0 7.0 0.00 0.00 0.00 54 1016.7
20260902163043 91 90 1.0 11.0 0.00 0.00 0.00 56 1016.8
20260902162528 90 105 2.0 11.0 0.00 0.00 0.00 56 1016.9
20260902162026 91 130 3.0 7.0 0.00 0.00 0.00 57 1016.8
20260902161550 91 19 1.0 7.0 0.00 0.00 0.00 58 1016.8
20260902161023 90 340 2.0 7.0 0.00 0.00 0.00 58 1016.8
20260902160525 90 119 1.0 7.0 0.00 0.00 0.00 59 1016.9
20260902160052 90 189 2.0 7.0 0.00 0.00 0.00 59 1016.9
20260902155525 91 178 3.0 7.0 0.00 0.00 0.00 57 1017.0
20260902155026 91 0 0.0 6.0 0.00 0.00 0.00 57 1017.0
20260902154545 91 0 1.0 6.0 0.00 0.00 0.00 56 1016.9
20260902154025 90 152 2.0 5.0 0.00 0.00 0.00 58 1017.0
20260902153525 90 154 0.0 4.0 0.00 0.00 0.00 60 1017.0
20260902153044 88 146 1.0 4.0 0.00 0.00 0.00 62 1016.9
20260902152522 88 179 1.0 5.0 0.00 0.00 0.00 62 1016.8
20260902152023 88 225 1.0 5.0 0.00 0.00 0.00 62 1016.8
20260902151549 87 0 0.0 5.0 0.00 0.00 0.00 64 1016.8
20260902151026 87 100 0.0 5.0 0.00 0.00 0.00 64 1016.8
20260902150524 87 192 1.0 4.0 0.00 0.00 0.00 63 1016.7
20260902150046 87 142 1.0 4.0 0.00 0.00 0.00 64 1016.7
20260902145524 87 0 1.0 4.0 0.00 0.00 0.00 63 1016.6
20260902145025 86 166 0.0 4.0 0.00 0.00 0.00 65 1016.6
20260902144557 86 0 1.0 4.0 0.00 0.00 0.00 65 1016.6
20260902144024 85 139 1.0 4.0 0.00 0.00 0.00 65 1016.6
20260902143524 85 144 1.0 4.0 0.00 0.00 0.00 67 1016.6
20260902143041 84 30 1.0 4.0 0.00 0.00 0.00 68 1016.6
20260902142523 84 0 1.0 6.0 0.00 0.00 0.00 68 1016.6
20260902142025 84 172 1.0 6.0 0.00 0.00 0.00 69 1016.6
20260902141545 84 167 2.0 6.0 0.00 0.00 0.00 68 1016.6
20260902141026 84 166 1.0 7.0 0.00 0.00 0.00 69 1016.6
20260902140524 84 76 2.0 8.0 0.00 0.00 0.00 69 1016.6
20260902140043 83 156 2.0 8.0 0.00 0.00 0.00 69 1016.6
20260902135522 83 145 1.0 4.0 0.00 0.00 0.00 70 1016.6
20260902135021 83 147 1.0 5.0 0.00 0.00 0.00 70 1016.6
20260902134543 83 208 2.0 5.0 0.00 0.00 0.00 70 1016.6
20260902134022 82 183 2.0 6.0 0.00 0.00 0.00 71 1016.6
20260902133524 82 165 2.0 6.0 0.00 0.00 0.00 71 1016.6
20260902133046 81 165 0.0 9.0 0.00 0.00 0.00 72 1016.5
20260902132526 81 161 2.0 9.0 0.00 0.00 0.00 71 1016.6
20260902132024 81 137 1.0 8.0 0.00 0.00 0.00 71 1016.5
20260902131545 81 153 2.0 7.0 0.00 0.00 0.00 71 1016.5
20260902131022 81 0 1.0 5.0 0.00 0.00 0.00 72 1016.5
20260902130520 80 185 1.0 8.0 0.00 0.00 0.00 72 1016.4
20260902130043 80 152 1.0 8.0 0.00 0.00 0.00 72 1016.3
20260902125525 80 159 2.0 8.0 0.00 0.00 0.00 72 1016.3
20260902125023 79 0 1.0 4.0 0.00 0.00 0.00 73 1016.4
20260902124546 79 111 0.0 3.0 0.00 0.00 0.00 73 1016.3
20260902124024 79 152 1.0 4.0 0.00 0.00 0.00 73 1016.1
20260902123524 79 150 1.0 6.0 0.00 0.00 0.00 73 1016.2
20260902123051 79 157 0.0 6.0 0.00 0.00 0.00 73 1016.1
20260902122524 79 93 1.0 6.0 0.00 0.00 0.00 73 1016.1
20260902122019 79 55 1.0 6.0 0.00 0.00 0.00 73 1016.0
20260902121542 79 223 0.0 5.0 0.00 0.00 0.00 73 1015.9
20260902121026 79 0 1.0 5.0 0.00 0.00 0.00 73 1015.8
20260902120523 79 187 1.0 5.0 0.00 0.00 0.00 73 1015.9
20260902120048 79 160 1.0 5.0 0.00 0.00 0.00 73 1015.9
20260902115529 79 0 1.0 4.0 0.00 0.00 0.00 73 1015.9
20260902115025 79 170 1.0 4.0 0.00 0.00 0.00 73 1016.0
20260902114548 79 0 0.0 4.0 0.00 0.00 0.00 73 1016.0
20260902114028 79 134 1.0 4.0 0.00 0.00 0.00 73 1016.0
20260902113524 79 166 1.0 4.0 0.00 0.00 0.00 72 1016.0
20260902113050 79 174 1.0 4.0 0.00 0.00 0.00 72 1016.0
20260902112522 79 183 1.0 4.0 0.00 0.00 0.00 72 1016.0
20260902112023 79 0 0.0 5.0 0.00 0.00 0.00 72 1016.0
20260902111548 79 171 1.0 5.0 0.00 0.00 0.00 72 1016.0
20260902111024 79 164 0.0 3.0 0.00 0.00 0.00 72 1016.1
20260902110524 79 153 0.0 3.0 0.00 0.00 0.00 72 1016.1
20260902110045 79 157 0.0 2.0 0.00 0.00 0.00 72 1016.1
20260902105524 79 157 0.0 2.0 0.00 0.00 0.00 72 1016.1
20260902105027 80 0 0.0 2.0 0.00 0.00 0.00 72 1016.1
20260902104546 80 0 0.0 1.0 0.00 0.00 0.00 71 1015.9
20260902104026 80 0 0.0 1.0 0.00 0.00 0.00 71 1016.0
20260902103525 80 0 0.0 2.0 0.00 0.00 0.00 71 1016.0
20260902103042 80 156 0.0 2.0 0.00 0.00 0.00 71 1015.9
20260902102524 80 172 0.0 2.0 0.00 0.00 0.00 70 1015.9
20260902102026 80 0 0.0 3.0 0.00 0.00 0.00 70 1015.9
20260902101540 80 0 0.0 4.0 0.00 0.00 0.00 70 1015.9
20260902101025 80 0 0.0 4.0 0.00 0.00 0.00 70 1015.9
20260902100524 80 0 0.0 3.0 0.00 0.00 0.00 70 1015.8
20260902100046 80 186 0.0 4.0 0.00 0.00 0.00 70 1015.9
20260902095521 80 0 0.0 4.0 0.00 0.00 0.00 70 1015.9
20260902095024 80 0 0.0 3.0 0.00 0.00 0.00 70 1015.7
20260902094543 80 183 0.0 2.0 0.00 0.00 0.00 70 1015.7
20260902094024 80 158 0.0 2.0 0.00 0.00 0.00 70 1015.7
20260902093523 80 0 0.0 1.0 0.00 0.00 0.00 70 1015.6
20260902093043 80 0 0.0 2.0 0.00 0.00 0.00 70 1015.6
20260902092526 80 151 0.0 2.0 0.00 0.00 0.00 70 1015.6
20260902092025 81 0 0.0 2.0 0.00 0.00 0.00 69 1015.6
20260902091552 81 0 0.0 2.0 0.00 0.00 0.00 69 1015.6
20260902091025 81 0 0.0 2.0 0.00 0.00 0.00 69 1015.5
20260902090524 81 0 0.0 4.0 0.00 0.00 0.00 69 1015.5
20260902090044 81 162 0.0 4.0 0.00 0.00 0.00 69 1015.6
20260902085519 81 0 0.0 2.0 0.00 0.00 0.00 68 1015.5
20260902085027 81 202 0.0 2.0 0.00 0.00 0.00 68 1015.5
20260902084541 82 178 0.0 4.0 0.00 0.00 0.00 68 1015.4
20260902084026 82 0 1.0 4.0 0.00 0.00 0.00 68 1015.5
20260902083524 82 144 0.0 4.0 0.00 0.00 0.00 68 1015.6
20260902083049 82 167 0.0 4.0 0.00 0.00 0.00 67 1015.5
20260902082527 82 169 0.0 6.0 0.00 0.00 0.00 67 1015.5
20260902082024 82 150 1.0 6.0 0.00 0.00 0.00 67 1015.5
20260902081545 82 172 1.0 6.0 0.00 0.00 0.00 67 1015.5
20260902081023 82 217 1.0 8.0 0.00 0.00 0.00 67 1015.5
20260902080522 82 205 1.0 8.0 0.00 0.00 0.00 67 1015.5
20260902080052 82 165 1.0 5.0 0.00 0.00 0.00 67 1015.5
20260902075526 82 148 1.0 6.0 0.00 0.00 0.00 67 1015.6
20260902075024 82 163 1.0 6.0 0.00 0.00 0.00 67 1015.6
20260902074547 82 169 1.0 4.0 0.00 0.00 0.00 67 1015.6
20260902074024 82 178 1.0 6.0 0.00 0.00 0.00 67 1015.6
20260902073525 83 0 0.0 6.0 0.00 0.00 0.00 67 1015.6
20260902073045 83 168 1.0 5.0 0.00 0.00 0.00 67 1015.6
20260902072524 83 153 1.0 5.0 0.00 0.00 0.00 67 1015.7
20260902072030 83 0 0.0 6.0 0.00 0.00 0.00 66 1015.6
20260902071543 83 203 1.0 6.0 0.00 0.00 0.00 66 1015.6
20260902071025 83 146 2.0 6.0 0.00 0.00 0.00 66 1015.6
20260902070524 83 0 1.0 6.0 0.00 0.00 0.00 66 1015.6
20260902070042 83 221 1.0 7.0 0.00 0.00 0.00 65 1015.6
20260902065521 84 171 2.0 7.0 0.00 0.00 0.00 65 1015.6
20260902065024 84 123 1.0 8.0 0.00 0.00 0.00 65 1015.5
20260902064551 84 138 2.0 8.0 0.00 0.00 0.00 65 1015.5
20260902064024 84 226 1.0 6.0 0.00 0.00 0.00 65 1015.5
20260902063524 84 186 1.0 7.0 0.00 0.00 0.00 65 1015.4
20260902063046 84 159 1.0 8.0 0.00 0.00 0.00 64 1015.4
20260902062528 84 142 2.0 8.0 0.00 0.00 0.00 64 1015.4
20260902062021 84 157 1.0 9.0 0.00 0.00 0.00 64 1015.4
20260902061553 85 188 2.0 9.0 0.00 0.00 0.00 63 1015.4
20260902061023 85 194 2.0 9.0 0.00 0.00 0.00 63 1015.4
20260902060525 85 169 1.0 10.0 0.00 0.00 0.00 63 1015.4
20260902060046 85 178 2.0 10.0 0.00 0.00 0.00 63 1015.4
20260902055524 85 153 1.0 7.0 0.00 0.00 0.00 62 1015.4
20260902055025 85 151 2.0 12.0 0.00 0.00 0.00 62 1015.5
20260902054545 85 291 2.0 12.0 0.00 0.00 0.00 62 1015.5
20260902054024 86 204 2.0 9.0 0.00 0.00 0.00 62 1015.4
20260902053523 86 197 3.0 9.0 0.00 0.00 0.00 61 1015.3